[[{"header":{"parameterUnit":"m.s-1","parameterCategory":1,"la1":30.2991,"la2":30.254,"lo1":-89.0895,"lo2":-89.0444,"dy":0.0017,"dx":0.0017,"nx":28,"ny":28,"refTime":"2024-10-11T21:00:00:Z","depth":0,"parameterNumber":2,"parameterNumberName":"U-component_of_WINDS"},"data":[0,0,0,0,0,0,0,0,0,0,0,0,0,0,0,0,0,0,0,0,0,0,0,0,0,0,0,0,0,0,0,0,0,0,0,0,0,0,0,0,0,0,0,0,0,0,0,0,0,0,0,0,0,0,0,0,0,0,-1.3951,-1.3951,0,-1.3881,-1.388,-1.3879,-1.3802,-1.3801,-1.38,-1.3799,-1.3728,-1.3727,-1.3726,0,0,0,0,0,0,0,0,0,0,0,0,0,-1.4023,-1.4023,-1.3951,-1.3951,-1.395,-1.3881,-1.388,-1.3879,-1.3803,-1.3801,-1.38,-1.3799,-1.3728,-1.3727,-1.3726,0,0,0,0,0,0,0,0,0,0,0,0,0,-1.3977,-1.4022,-1.3952,-1.3903,-1.3898,-1.3881,-1.388,-1.3879,-1.3803,-1.3801,-1.38,-1.3798,-1.3729,-1.3727,-1.3726,-1.3751,0,0,-1.3722,-1.3722,0,0,0,0,0,0,0,0,-1.3979,-1.3974,-1.3911,-1.3907,-1.3901,-1.3849,-1.3879,-1.3836,-1.3803,-1.3839,-1.3799,-1.3797,-1.377,-1.3765,-1.3755,-1.3748,-1.3745,-1.3722,-1.3721,-1.3721,-1.372,0,0,0,0,0,0,0,-1.3983,-1.3977,-1.3923,-1.391,-1.3904,-1.3886,-1.3878,-1.387,-1.3815,-1.3836,-1.383,-1.3823,-1.3766,-1.3757,-1.3753,-1.3744,-1.3722,-1.3721,-1.372,-1.372,-1.3756,-1.3758,0,0,0,0,0,0,-1.3993,-1.398,-1.3926,-1.3921,-1.3937,-1.3886,-1.3877,-1.3867,-1.3814,-1.3805,-1.3824,-1.3819,-1.376,-1.3755,-1.375,-1.3778,-1.3721,-1.3719,-1.3719,-1.3755,-1.3757,-1.3759,0,0,0,0,0,0,-1.3995,-1.3989,-1.3928,-1.3949,-1.394,-1.3887,-1.3877,-1.3867,-1.3857,-1.3806,-1.3795,-1.3824,-1.3758,-1.3752,-1.3752,-1.3774,-1.3719,-1.3718,-1.3753,-1.3755,-1.3758,-1.3833,0,0,0,0,0,0,-1.3997,-1.399,-1.3998,-1.395,-1.3939,-1.3931,-1.3878,-1.3866,-1.3854,-1.3848,-1.3803,-1.3794,-1.3756,-1.3754,-1.3751,-1.3772,-1.3717,-1.375,-1.3754,-1.3757,-1.3828,-1.3838,-1.3846,0,0,0,0,0,-1.4,-1.4021,-1.3999,-1.3993,-1.3948,-1.3932,-1.3926,-1.3882,-1.3856,-1.3865,-1.3833,-1.3795,-1.3773,-1.3755,-1.375,-1.3771,-1.3749,-1.3753,-1.3757,-1.3824,-1.3836,-1.3846,0,0,0,0,0,0,-1.4073,-1.4014,-1.3988,-1.3995,-1.3969,-1.3919,-1.3928,-1.3895,-1.3877,-1.3871,-1.3818,-1.3808,-1.3816,-1.3793,-1.3775,-1.3794,-1.3756,-1.3759,-1.3809,-1.3819,-1.3828,-1.3834,-1.3716,0,0,0,0,0,-1.409,-1.4082,-1.4031,-1.4041,-1.403,-1.3982,-1.3973,-1.3942,-1.3913,-1.3902,-1.3869,-1.3844,-1.3831,-1.3824,-1.3809,-1.3825,-1.3815,-1.3837,-1.3846,-1.3853,-1.3857,-1.3867,-1.3876,-1.3772,-1.3772,-1.3772,0,0,-1.4125,-1.4092,-1.409,-1.4056,-1.4032,-1.4026,-1.3973,-1.3968,-1.3963,-1.3901,-1.39,-1.3875,-1.3843,-1.3852,-1.3854,-1.3834,-1.3884,-1.3858,-1.3865,-1.3864,-1.3872,-1.3882,-1.3891,-1.3774,-1.3774,-1.3774,0,0,-1.4186,-1.4159,-1.4166,-1.4144,-1.411,-1.4078,-1.408,-1.4035,-1.4017,-1.4015,-1.3969,-1.3963,-1.3941,-1.3921,-1.3908,-1.3965,-1.3931,-1.3961,-1.4008,-1.4018,-1.4027,-1.4034,-1.4056,-1.4064,-1.3965,-1.3965,-1.3965,0,-1.4234,-1.4222,-1.4174,-1.4173,-1.416,-1.4104,-1.4112,-1.4093,-1.4056,-1.4049,-1.4026,-1.4,-1.3974,-1.3979,-1.3993,-1.3984,-1.3986,-1.3966,-1.4029,-1.4036,-1.4042,-1.4062,-1.4071,-1.3969,-1.3969,-1.3969,-1.3968,0,-1.4284,-1.4276,-1.4286,-1.4253,-1.4241,-1.4244,-1.4198,-1.4193,-1.4163,-1.4134,-1.4134,-1.4102,-1.4081,-1.4079,-1.4049,-1.4081,-1.4069,-1.4039,-1.3999,-1.4057,-1.4075,-1.4083,-1.3975,-1.3974,-1.3973,-1.3972,0,0,-1.4388,-1.4329,-1.4334,-1.4319,-1.4278,-1.4271,-1.4273,-1.4253,-1.425,-1.4227,-1.4228,-1.4213,-1.4185,-1.417,-1.4138,-1.4147,-1.4197,-1.4115,-1.4114,-1.4133,-1.4232,-1.4257,-1.4267,-1.4174,-1.4175,-1.4176,-1.4236,0,-1.4443,-1.4442,-1.44,-1.4412,-1.4406,-1.4354,-1.4356,-1.4332,-1.4306,-1.4298,-1.4269,-1.4259,-1.4222,-1.4214,-1.422,-1.419,-1.4216,-1.4184,-1.4177,-1.4177,-1.4188,-1.4276,-1.4301,-1.4359,-1.4242,-1.4244,-1.4244,0,-1.4506,-1.4487,-1.4499,-1.446,-1.4456,-1.4458,-1.4437,-1.443,-1.4402,-1.4383,-1.4368,-1.4332,-1.4333,-1.4296,-1.4297,-1.4277,-1.4271,-1.4257,-1.4258,-1.4256,-1.4215,-1.4279,-1.4376,-1.4385,-1.4255,-1.4254,-1.4253,0,-1.4584,-1.4561,-1.4566,-1.4554,-1.4508,-1.4512,-1.4493,-1.4463,-1.4455,-1.4437,-1.4432,-1.4414,-1.4405,-1.4394,-1.4355,-1.4331,-1.4362,-1.4321,-1.4348,-1.4349,-1.4357,-1.4358,-1.4457,-1.4352,-1.4352,-1.4351,-1.4351,0,-1.465,-1.4659,-1.46,-1.4603,-1.4613,-1.4566,-1.4577,-1.4554,-1.4529,-1.4527,-1.4481,-1.4481,-1.4429,-1.4424,-1.4394,-1.4402,-1.4397,-1.4383,-1.4375,-1.4388,-1.439,-1.4384,-1.438,-1.4354,-1.4353,-1.4353,-1.4352,0,-1.4738,-1.4698,-1.47,-1.4657,-1.4647,-1.4657,-1.462,-1.4622,-1.4594,-1.4593,-1.459,-1.4546,-1.4537,-1.4498,-1.4479,-1.4459,-1.4478,-1.4461,-1.4488,-1.4483,-1.4513,-1.4512,-1.4613,-1.4625,-1.4511,-1.4513,-1.4513,0,-1.4783,-1.479,-1.4748,-1.4744,-1.4727,-1.4721,-1.4712,-1.4667,-1.466,-1.4631,-1.4637,-1.4625,-1.4613,-1.4603,-1.457,-1.4557,-1.454,-1.4577,-1.4538,-1.4552,-1.4543,-1.4544,-1.4546,-1.4586,-1.4587,-1.4588,-1.4589,0,-1.4869,-1.485,-1.4839,-1.4822,-1.4814,-1.4798,-1.478,-1.4779,-1.4729,-1.4725,-1.4716,-1.4707,-1.4689,-1.4679,-1.4661,-1.4642,-1.4609,-1.4602,-1.4608,-1.4622,-1.4638,-1.4632,-1.4512,-1.46,-1.4599,-1.4598,-1.4597,-1.4597,-1.4939,-1.4943,-1.4915,-1.4905,-1.4887,-1.4872,-1.4872,-1.4845,-1.4836,-1.4819,-1.4793,-1.4788,-1.4763,-1.4735,-1.472,-1.4717,-1.4697,-1.4706,-1.4708,-1.4711,-1.4719,-1.4637,-1.4713,-1.4713,-1.4713,-1.4712,-1.4712,0,-1.5024,-1.5004,-1.4995,-1.4972,-1.4965,-1.4933,-1.4913,-1.4909,-1.4906,-1.4885,-1.4875,-1.4866,-1.4857,-1.4824,-1.4811,-1.4816,-1.48,-1.4814,-1.4814,-1.4811,-1.4736,-1.4733,-1.4827,-1.4827,-1.4827,-1.4827,-1.4827,-1.4827,-1.5067,-1.5074,-1.5052,-1.505,-1.503,-1.5025,-1.5016,-1.5003,-1.4986,-1.4979,-1.4971,-1.4949,-1.4925,-1.491,-1.4901,-1.4892,-1.489,-1.491,-1.4896,-1.4827,-1.4816,-1.4805,-1.4802,-1.491,-1.491,-1.4971,-1.4972,-1.4973]},{"header":{"parameterUnit":"m.s-1","parameterCategory":1,"la1":30.2991,"la2":30.254,"lo1":-89.0895,"lo2":-89.0444,"dy":0.0017,"dx":0.0017,"nx":28,"ny":28,"refTime":"2024-10-11T21:00:00:Z","depth":0,"parameterNumber":3,"parameterNumberName":"V-component_of_WINDS"},"data":[0,0,0,0,0,0,0,0,0,0,0,0,0,0,0,0,0,0,0,0,0,0,0,0,0,0,0,0,0,0,0,0,0,0,0,0,0,0,0,0,0,0,0,0,0,0,0,0,0,0,0,0,0,0,0,0,0,0,1.6329,1.6329,0,1.6313,1.6312,1.6312,1.6302,1.6302,1.6302,1.6302,1.6284,1.6283,1.6283,0,0,0,0,0,0,0,0,0,0,0,0,0,1.6349,1.6349,1.6329,1.6329,1.6329,1.6313,1.6312,1.6312,1.6302,1.6302,1.6302,1.6302,1.6284,1.6283,1.6283,0,0,0,0,0,0,0,0,0,0,0,0,0,1.6337,1.6349,1.6329,1.6322,1.6321,1.6313,1.6312,1.6312,1.6302,1.6302,1.6302,1.6302,1.6284,1.6283,1.6283,1.628,0,0,1.6281,1.628,0,0,0,0,0,0,0,0,1.6338,1.6337,1.6323,1.6323,1.6322,1.631,1.6313,1.6301,1.6302,1.631,1.6302,1.6302,1.6292,1.6291,1.6288,1.6279,1.6278,1.628,1.628,1.628,1.628,0,0,0,0,0,0,0,1.6339,1.6337,1.6323,1.6323,1.6322,1.6318,1.6317,1.631,1.6301,1.6309,1.6308,1.6306,1.6292,1.6288,1.6287,1.6278,1.628,1.628,1.6279,1.6279,1.6262,1.6262,0,0,0,0,0,0,1.6341,1.6338,1.6323,1.6322,1.633,1.6318,1.6316,1.6313,1.6301,1.63,1.6306,1.6306,1.629,1.6288,1.6287,1.628,1.628,1.6279,1.6279,1.6262,1.6262,1.6262,0,0,0,0,0,0,1.6342,1.634,1.6324,1.633,1.6328,1.6318,1.6315,1.6313,1.631,1.63,1.6298,1.6305,1.629,1.6288,1.6281,1.628,1.6279,1.6278,1.6262,1.6262,1.6262,1.6269,0,0,0,0,0,0,1.6342,1.634,1.634,1.633,1.6327,1.632,1.6315,1.6313,1.6309,1.6308,1.6298,1.6296,1.6289,1.6282,1.628,1.6279,1.6278,1.6262,1.6262,1.6262,1.6269,1.6269,1.627,0,0,0,0,0,1.6343,1.6343,1.634,1.6338,1.6327,1.632,1.6318,1.6311,1.6309,1.6308,1.6301,1.6296,1.628,1.6281,1.6279,1.6278,1.6262,1.6262,1.6262,1.6269,1.6269,1.627,0,0,0,0,0,0,1.6353,1.6342,1.6338,1.6335,1.6328,1.6318,1.6316,1.6312,1.6305,1.6305,1.6296,1.6293,1.6287,1.6282,1.6283,1.6272,1.627,1.627,1.6276,1.6277,1.6277,1.6278,1.6277,0,0,0,0,0,1.6355,1.6351,1.6341,1.6339,1.6335,1.6326,1.6323,1.6318,1.631,1.6307,1.63,1.6292,1.6285,1.6281,1.6274,1.6268,1.6264,1.6266,1.6266,1.6266,1.6266,1.626,1.626,1.6262,1.6262,1.6262,0,0,1.6359,1.6352,1.635,1.634,1.6335,1.6329,1.6324,1.6319,1.6315,1.6307,1.6299,1.6293,1.6284,1.6277,1.6274,1.6272,1.6264,1.6266,1.6267,1.6266,1.626,1.626,1.6259,1.6262,1.6262,1.6262,0,0,1.6362,1.6358,1.6354,1.6348,1.634,1.6333,1.6332,1.6322,1.6318,1.6311,1.6304,1.6297,1.6286,1.6279,1.6274,1.6272,1.6267,1.627,1.6272,1.6266,1.6266,1.6266,1.6263,1.6263,1.6269,1.6269,1.627,0,1.6368,1.6361,1.6353,1.6348,1.6343,1.6335,1.6331,1.6325,1.6314,1.6311,1.6309,1.6293,1.6286,1.6277,1.6276,1.6273,1.627,1.6271,1.6267,1.6266,1.6266,1.6263,1.6263,1.627,1.627,1.627,1.627,0,1.6367,1.6362,1.636,1.6349,1.6344,1.634,1.633,1.6326,1.632,1.6314,1.6305,1.6296,1.6286,1.6283,1.6279,1.6272,1.6271,1.6269,1.6266,1.6266,1.6264,1.6263,1.627,1.627,1.627,1.627,0,0,1.6378,1.6362,1.6361,1.6355,1.6344,1.6339,1.6333,1.6323,1.6319,1.6311,1.6304,1.6294,1.629,1.6284,1.6278,1.6273,1.627,1.627,1.627,1.6269,1.626,1.6261,1.6261,1.6266,1.6266,1.6266,1.626,0,1.6379,1.6369,1.6361,1.6353,1.6346,1.6338,1.6332,1.6323,1.6316,1.6309,1.6301,1.6293,1.629,1.6286,1.628,1.6271,1.6268,1.6272,1.6259,1.6258,1.6261,1.626,1.6262,1.6257,1.6259,1.6259,1.6259,0,1.638,1.6372,1.6363,1.635,1.6347,1.6342,1.6331,1.6325,1.6314,1.6309,1.6301,1.6295,1.6286,1.6284,1.6271,1.6274,1.6268,1.6262,1.6262,1.626,1.6258,1.6256,1.6255,1.6254,1.6258,1.6258,1.6258,0,1.6386,1.6374,1.6366,1.6361,1.6347,1.6343,1.6337,1.6326,1.632,1.631,1.6305,1.6295,1.6288,1.6279,1.6269,1.6269,1.6256,1.6254,1.625,1.625,1.6248,1.6248,1.6244,1.6245,1.6245,1.6245,1.6245,0,1.6388,1.6383,1.6369,1.6364,1.6357,1.6347,1.634,1.6332,1.6322,1.6315,1.6306,1.6299,1.6287,1.6277,1.6269,1.6258,1.6256,1.625,1.6248,1.625,1.6251,1.6246,1.6246,1.6245,1.6245,1.6245,1.6245,0,1.6395,1.6385,1.6376,1.6363,1.6359,1.6354,1.6341,1.6336,1.6327,1.6318,1.6315,1.6302,1.629,1.6279,1.6264,1.6258,1.6246,1.6244,1.625,1.6249,1.6245,1.6245,1.6237,1.6235,1.6238,1.6238,1.6238,0,1.6396,1.6392,1.6377,1.6372,1.6365,1.6357,1.635,1.6339,1.6333,1.6318,1.6314,1.6302,1.6291,1.6273,1.6261,1.6248,1.6245,1.6243,1.6243,1.6245,1.6243,1.6243,1.6242,1.6243,1.6243,1.6243,1.6243,0,1.6399,1.6394,1.6386,1.6374,1.6367,1.6358,1.6348,1.6343,1.633,1.6323,1.6311,1.6303,1.6286,1.6273,1.6259,1.6251,1.6244,1.6243,1.6241,1.6244,1.6247,1.6243,1.6249,1.6243,1.6243,1.6243,1.6243,1.6243,1.6402,1.6397,1.6386,1.6375,1.6367,1.6357,1.6351,1.6341,1.6331,1.6317,1.6311,1.6298,1.6285,1.6265,1.6256,1.6245,1.6244,1.6242,1.6241,1.624,1.624,1.6249,1.6243,1.6243,1.6243,1.6243,1.6243,0,1.6404,1.6395,1.6386,1.6372,1.6364,1.6359,1.6347,1.634,1.6329,1.6317,1.6307,1.6292,1.6279,1.6265,1.6251,1.6244,1.6241,1.6241,1.6241,1.6239,1.6243,1.6245,1.6244,1.6244,1.6244,1.6244,1.6244,1.6244,1.6403,1.6394,1.6387,1.6372,1.6363,1.6351,1.6345,1.6335,1.6325,1.6309,1.6298,1.629,1.6277,1.6261,1.6248,1.6244,1.6238,1.6239,1.6234,1.6239,1.6239,1.6239,1.6241,1.6238,1.6238,1.6231,1.6231,1.6231]}]]